Weather History for Prague, Czech Republic

Change the Weather History Date:

Saturday, June 15, 2013

  Actual Average Record
Temperature  
Mean Temperature 61 °F -  
Max Temperature 74 °F 72 °F 82 °F (2006)
Min Temperature 48 °F 52 °F 42 °F (2012)
Degree Days  
Heating Degree Days 4    
Growing Degree Days 11 (Base 50)    
Moisture  
Dew Point 53 °F    
Average Humidity 72    
Maximum Humidity 94    
Minimum Humidity 43    
Precipitation  
Precipitation 0.00 in 0.09 in - ()
Sea Level Pressure  
Sea Level Pressure 30.02 in    
Wind  
Wind Speed 5 mph ()    
Max Wind Speed 16 mph    
Max Gust Speed -    
Visibility 6.2 miles    
Events      
Averages and records for this station are not official NWS values.
T = Trace of Precipitation, MM = Missing Value Source: Averaged Metar Reports

Daily Weather History Graph

Daily Weather History Graph

Search for Another Location

Airport:

Trip Planner

Search our weather history database for the weather conditions in past years. The results will help you decide how hot, cold, wet, or windy it might be!

Date:

Astronomy

Jun. 15, 2013 Rise Set
Actual Time 4:52 AM CEST 9:14 PM CEST
Civil Twilight 4:08 AM CEST 9:59 PM CEST
Nautical Twilight 3:02 AM CEST 11:04 PM CEST
Astronomical Twilight 1:35 AM CEST 12:31 AM CEST
Moon 11:45 AM CEST (6/15) 12:09 AM CEST (6/15)
Length of Visible Light 17h 51m
Length of Day
16h 21m
Waxing Crescent, 37% of the Moon is Illuminated
Jun 15
Waxing Crescent
Jun 16
First Quarter
Jun 23
Full
Jun 30
Last Quarter
Jul 8
New

Hourly Weather History & Observations

Time (CEST) Temp. Dew Point Humidity Pressure Visibility Wind Dir Wind Speed Gust Speed Precip Events Conditions
12:00 AM 57.2 °F 48.2 °F 72% 30.09 in - East 4.6 mph - N/A   Clear
12:30 AM 55.4 °F 48.2 °F 77% 30.09 in - ENE 4.6 mph - N/A   Clear
1:00 AM 55.4 °F 48.2 °F 77% 30.06 in - East 4.6 mph - N/A   Clear
1:30 AM 51.8 °F 46.4 °F 82% 30.06 in - ESE 4.6 mph - N/A   Clear
2:00 AM 50 °F 47 °F 85% 30.10 in 31 mi SSE 2.2 mph - -   Partly Cloudy
2:00 AM 50.0 °F 46.4 °F 87% 30.06 in - East 2.3 mph - N/A   Clear
2:30 AM 53.6 °F 48.2 °F 82% 30.06 in - Variable 1.2 mph - N/A   Clear
3:00 AM 51.8 °F 48.2 °F 88% 30.06 in - NNW 3.5 mph - N/A   Clear
3:30 AM 50.0 °F 46.4 °F 87% 30.06 in - North 2.3 mph - N/A   Clear
4:00 AM 48.2 °F 46.4 °F 93% 30.06 in - NNE 2.3 mph - N/A   Clear
4:30 AM 50.0 °F 48.2 °F 94% 30.06 in - NNE 3.5 mph - N/A   Clear
5:00 AM 51.8 °F 48.2 °F 88% 30.06 in - NNE 3.5 mph - N/A   Clear
5:30 AM 51.8 °F 48.2 °F 88% 30.06 in 6.2 mi NNE 3.5 mph - N/A   Partly Cloudy
6:00 AM 51.8 °F 48.2 °F 88% 30.06 in 6.2 mi Variable 2.3 mph - N/A   Partly Cloudy
6:30 AM 55.4 °F 51.8 °F 88% 30.06 in 6.2 mi NNE 2.3 mph - N/A   Partly Cloudy
7:00 AM 55.4 °F 51.8 °F 88% 30.06 in - ENE 5.8 mph - N/A   Clear
7:30 AM 57.2 °F 51.8 °F 82% 30.04 in - East 3.5 mph - N/A   Clear
8:00 AM 58 °F 53 °F 78% 30.05 in 22 mi East 2.2 mph - -   Mostly Cloudy
8:00 AM 57.2 °F 51.8 °F 82% 30.04 in 6.2 mi ESE 3.5 mph - N/A   Mostly Cloudy
8:30 AM 60.8 °F 53.6 °F 77% 30.04 in - ESE 5.8 mph - N/A   Clear
9:00 AM 60.8 °F 50.0 °F 68% 30.04 in 6.2 mi SE 6.9 mph - N/A   Partly Cloudy
9:30 AM 60.8 °F 51.8 °F 72% 30.04 in 6.2 mi ESE 5.8 mph - N/A   Partly Cloudy
10:00 AM 62.6 °F 51.8 °F 68% 30.04 in - ESE 4.6 mph - N/A   Clear
10:30 AM 64.4 °F 53.6 °F 68% 30.04 in 6.2 mi SSE 3.5 mph - N/A   Partly Cloudy
11:00 AM 68.0 °F 57.2 °F 68% 30.01 in 6.2 mi South 5.8 mph - N/A   Partly Cloudy
11:30 AM 66.2 °F 57.2 °F 73% 30.01 in 6.2 mi South 6.9 mph - N/A   Partly Cloudy
12:00 PM 69.8 °F 57.2 °F 64% 30.01 in 6.2 mi SSE 5.8 mph - N/A   Scattered Clouds
12:30 PM 69.8 °F 59.0 °F 68% 30.01 in 6.2 mi SSE 8.1 mph - N/A   Scattered Clouds
1:00 PM 71.6 °F 57.2 °F 60% 29.98 in 6.2 mi South 9.2 mph - N/A   Scattered Clouds
1:30 PM 71.6 °F 57.2 °F 60% 29.98 in 6.2 mi South 9.2 mph - N/A   Scattered Clouds
2:00 PM 74 °F 56 °F 43% 29.94 in 34 mi South 6.7 mph - -   Partly Cloudy
2:00 PM 73.4 °F 59.0 °F 61% 29.98 in 6.2 mi South 6.9 mph - N/A   Scattered Clouds
2:30 PM 73.4 °F 57.2 °F 57% 29.98 in 6.2 mi SSW 11.5 mph - N/A   Partly Cloudy
3:00 PM 73.4 °F 55.4 °F 53% 29.98 in 6.2 mi SW 10.4 mph - N/A   Partly Cloudy
3:30 PM 73.4 °F 57.2 °F 57% 29.98 in 6.2 mi West 11.5 mph - N/A   Partly Cloudy
4:00 PM 73.4 °F 59.0 °F 61% 29.98 in - WSW 10.4 mph - N/A   Clear
4:30 PM 71.6 °F 55.4 °F 57% 29.95 in - WSW 16.1 mph - N/A   Clear
5:00 PM 71.6 °F 57.2 °F 60% 29.95 in - WSW 13.8 mph - N/A   Clear
5:30 PM 73.4 °F 57.2 °F 57% 29.95 in - WSW 12.7 mph - N/A   Clear
6:00 PM 71.6 °F 59.0 °F 64% 29.95 in - WSW 10.4 mph - N/A   Clear
6:30 PM 71.6 °F 57.2 °F 60% 29.98 in - WSW 8.1 mph - N/A   Clear
7:00 PM 71.6 °F 59.0 °F 64% 29.98 in - WSW 5.8 mph - N/A   Clear
7:30 PM 69.8 °F 59.0 °F 68% 29.98 in - WNW 3.5 mph - N/A   Clear
8:00 PM 70 °F 55 °F 49% 29.94 in 44 mi NW 4.5 mph - -   Scattered Clouds
8:00 PM 69.8 °F 55.4 °F 60% 29.98 in - North 3.5 mph - N/A   Clear
8:30 PM 68.0 °F 57.2 °F 68% 29.98 in - Variable 2.3 mph - N/A   Clear
9:00 PM 66.2 °F 53.6 °F 64% 29.98 in - NNE 3.5 mph - N/A   Clear
9:30 PM 66.2 °F 55.4 °F 68% 29.98 in - Variable 1.2 mph - N/A   Clear
10:00 PM 62.6 °F 53.6 °F 72% 30.01 in - WSW 4.6 mph - N/A   Clear
10:30 PM 62.6 °F 55.4 °F 77% 30.01 in - WSW 4.6 mph - N/A   Clear
11:00 PM 62.6 °F 53.6 °F 72% 30.01 in - WSW 4.6 mph - N/A   Clear
11:30 PM 60.8 °F 55.4 °F 82% 30.01 in - WSW 5.8 mph - N/A   Clear